{"data":{"norad_id":59234,"epoch":"2026-05-25T03:05:05.595072Z","epoch_age_seconds":64185,"freshness":"FRESH","line1":"1 59234U 24049D   26145.12853698  .00000296  00000+0  20271-4 0  9994","line2":"2 59234  43.0012  60.8444 0000882 271.7151  88.3600 15.27581804124219","mean_motion":15.27581804,"eccentricity":8.82e-5,"inclination_deg":43.0012,"raan_deg":60.8444,"arg_perigee_deg":271.7151,"mean_anomaly_deg":88.36,"bstar":2.0271e-5,"rev_number":12421,"period_min":94.266637389195,"perigee_km":482.43853808275,"apogee_km":483.64885035721,"semimajor_km":6861.18069422,"source":"CELESTRAK","updated_at":"2026-05-25T13:38:18.869556Z"}}